Torna al catalogo

STARLINK-11466

AttivoComunicazioniVLEO
NORAD 62220·PAYLOAD·🇺🇸 United States

Lanciato Dec 5, 2024 da Vandenberg Space Force Base

Loading…

Prossimi Passaggi (prossime 24 ore)

TLE

AggiornatoSource: CelesTrak SupGP

Epoca: Sep 14, 2026, 22:50 UTC

1 62220C 24231C   26257.95187500  .00045661  00000+0  37625-3 0  2575
2 62220  53.1570 248.4504 0001160  70.2674 332.6749 15.69678362    14

Traccia STARLINK-11466 in tempo reale con AllMySat

Download on the App Store